EW0349 Weather Reports


time (UTC)temp
F
wind
direction
speed
knots
gust
knots
rain 1hr
in
rain 24hr
in
rain mn
in
humidity
%
barometer
mb
20260507010014 65 311 2.6 7.0 0.00 0.00 0.00 63 1019.8
20260507004525 66 296 0.9 4.3 0.00 0.00 0.00 63 1019.7
20260507003005 67 295 1.7 6.1 0.00 0.00 0.00 61 1019.7
20260507001501 67 312 1.7 5.2 0.00 0.00 0.00 61 1019.6
20260507000057 68 289 2.6 6.1 0.00 0.00 0.00 60 1019.5
20260506234600 69 300 1.7 5.2 0.00 0.00 0.00 60 1019.4
20260506233047 70 300 1.7 5.2 0.00 0.00 0.00 58 1019.4
20260506231551 70 322 0.9 3.5 0.00 0.00 0.00 58 1019.4
20260506230052 69 230 0.9 7.0 0.00 0.00 0.00 59 1019.5
20260506224535 69 332 0.0 2.6 0.00 0.00 0.00 61 1019.6
20260506223044 69 263 0.0 3.5 0.00 0.00 0.00 58 1019.7
20260506221525 67 182 0.9 4.3 0.00 0.00 0.00 60 1019.9
20260506220024 68 182 1.7 5.2 0.00 0.00 0.00 59 1020.1
20260506214517 67 316 0.9 5.2 0.00 0.00 0.00 60 1019.9
20260506213014 66 218 0.9 3.5 0.00 0.00 0.00 61 1020.1
20260506211632 66 258 0.9 5.2 0.00 0.00 0.00 60 1020.1
20260506210002 64 55 0.0 3.5 0.00 0.00 0.00 64 1020.4
20260506204600 64 315 0.9 4.3 0.00 0.00 0.00 62 1020.5
20260506203054 63 306 0.9 6.1 0.00 0.00 0.00 63 1020.7
20260506201559 63 288 0.9 3.5 0.00 0.00 0.00 63 1020.6
20260506200044 63 215 0.9 4.3 0.00 0.00 0.00 62 1020.6
20260506194554 62 167 2.6 6.1 0.00 0.00 0.00 62 1020.7
20260506193039 61 287 0.9 5.2 0.00 0.00 0.00 62 1020.6
20260506191538 60 281 0.9 5.2 0.00 0.00 0.00 61 1020.8
20260506190026 59 205 0.9 5.2 0.00 0.00 0.00 60 1021.1
20260506184522 59 192 0.9 4.3 0.00 0.00 0.00 58 1021.0
20260506183028 57 169 0.0 4.3 0.00 0.00 0.00 53 1021.1
20260506181513 57 177 0.9 4.3 0.00 0.00 0.00 50 1020.9
20260506180012 56 183 0.9 2.6 0.00 0.00 0.00 49 1020.9
20260506174510 55 217 0.0 2.6 0.00 0.00 0.00 47 1021.1
20260506173109 55 217 0.9 3.5 0.00 0.00 0.00 46 1021.2
20260506171556 55 187 0.0 3.5 0.00 0.00 0.00 43 1020.9
20260506170109 54 209 0.0 2.6 0.00 0.00 0.00 40 1021.0
20260506164548 53 209 0.0 3.5 0.00 0.00 0.00 34 1021.0
20260506163054 53 207 0.0 0.9 0.00 0.00 0.00 30 1021.0
20260506161541 53 194 1.7 5.2 0.00 0.00 0.00 28 1020.7
20260506160039 52 238 0.0 2.6 0.00 0.00 0.00 28 1020.5
20260506154533 52 278 0.9 5.2 0.00 0.00 0.00 30 1020.8
20260506153025 52 197 0.0 1.7 0.00 0.00 0.00 32 1021.0
20260506151521 52 22 0.0 1.7 0.00 0.00 0.00 36 1021.1
20260506150017 52 269 0.0 2.6 0.00 0.00 0.00 31 1021.1
20260506144512 52 259 0.0 1.7 0.00 0.00 0.00 28 1020.6
20260506143019 51 196 0.0 1.7 0.00 0.00 0.00 20 1020.0
20260506141507 50 292 0.0 0.9 0.00 0.00 0.00 14 1019.9
20260506140104 50 292 0.0 0.0 0.00 0.00 0.00 11 1019.9
20260506134556 50 292 0.0 0.0 0.00 0.00 0.00 14 1020.0
20260506133052 50 292 0.0 0.9 0.00 0.00 0.00 12 1020.0
20260506131546 50 292 0.0 0.0 0.00 0.00 0.00 12 1019.9
20260506130042 51 292 0.0 1.7 0.00 0.00 0.00 10 1019.7
20260506124538 51 292 0.0 0.9 0.00 0.00 0.00 9 1019.7
20260506123034 51 292 0.0 0.0 0.00 0.00 0.00 10 1019.8
20260506121529 51 292 0.0 2.6 0.00 0.00 0.00 7 1019.6
20260506120038 51 292 0.9 2.6 0.00 0.00 0.00 2 1019.6
20260506114520 50 285 0.0 1.7 0.00 0.00 0.00 100 1019.3
20260506113026 50 285 0.0 1.7 0.00 0.00 0.00 100 1019.1
20260506111510 49 285 0.0 2.6 0.00 0.00 0.00 100 1018.9
20260506110009 49 285 0.0 0.0 0.00 0.00 0.00 1 1018.7
20260506104502 48 285 0.0 0.0 0.00 0.00 0.00 8 1018.4
20260506103122 48 285 0.0 0.0 0.00 0.00 0.00 14 1018.3
20260506101555 49 285 0.0 0.0 0.00 0.00 0.00 18 1018.1
20260506100053 49 285 0.0 0.0 0.00 0.00 0.00 22 1018.0
20260506094550 50 285 0.0 0.0 0.00 0.00 0.00 25 1017.9
20260506093046 50 285 0.0 0.0 0.00 0.00 0.00 27 1017.8
20260506091543 51 285 0.0 0.0 0.00 0.00 0.00 31 1017.8
20260506090048 51 285 0.0 0.0 0.00 0.00 0.00 35 1017.6
20260506084548 52 285 0.0 0.0 0.00 0.00 0.00 39 1017.6
20260506083034 53 285 0.0 0.9 0.00 0.00 0.00 43 1017.4
20260506081537 54 285 0.0 0.0 0.00 0.00 0.00 47 1017.4
20260506073022 56 285 0.0 0.0 0.00 0.00 0.00 58 1017.3
20260506071519 56 285 0.0 0.0 0.00 0.00 0.00 58 1017.2
20260506061533 57 285 0.0 0.0 0.00 0.00 0.00 61 1016.8
20260506044510 57 79 0.0 0.0 0.00 0.00 0.00 56 1016.3
20260506043012 58 79 0.0 0.0 0.00 0.00 0.00 59 1016.2
20260506041507 58 79 0.0 0.0 0.00 0.00 0.00 62 1016.0
20260506040008 58 79 0.0 0.0 0.00 0.00 0.00 64 1015.8
20260506034507 59 79 0.0 0.0 0.00 0.00 0.00 65 1015.5
20260506033006 59 79 0.0 0.9 0.00 0.00 0.00 67 1015.4
20260506031505 60 79 0.0 0.0 0.00 0.00 0.00 67 1015.3
20260506030004 60 79 0.0 0.0 0.00 0.00 0.00 67 1015.1
20260506024512 60 79 0.0 1.7 0.00 0.00 0.00 67 1015.0
20260506023004 61 79 0.0 1.7 0.00 0.00 0.00 67 1015.1
20260506021502 62 79 0.0 3.5 0.00 0.00 0.00 66 1015.1
20260506020005 62 82 0.0 3.5 0.00 0.00 0.00 66 1015.0
20260506014601 63 86 0.9 3.5 0.00 0.00 0.00 65 1014.9
20260506013107 64 104 0.9 2.6 0.00 0.00 0.00 63 1014.9
20260506011607 65 105 0.0 3.5 0.00 0.00 0.00 63 1014.9